When you browse on this site, cookies collect data to enhance your experience and personalize the content and advertising you see.
Visit our Privacy Policy to learn more. By continuing to use the site, you agree to this use of cookies and data.
  • în România
  • Lista ţărilor
  • Pe 7 zile
  • Temperatura apei
  • Meteo pe hartă
  • Widget-uri
  • user-avatar
    Intrare

    Meteo pe oră la Northampton

    Astăzi, 7 Iunie, Duminică

    Timp Temperatura Precipitaţii Vânt Presiune Umiditate
    00:00 +6°C° 0 mm 2 m/s 743 mmHg 92%
    01:00 +5°C° 0 mm 3 m/s 744 mmHg 94%
    02:00 +5°C° 0 mm 3 m/s 744 mmHg 95%
    03:00 +5°C° 0 mm 3 m/s 744 mmHg 97%
    04:00 +6°C° 0 mm 4 m/s 744 mmHg 96%
    05:00 +7°C° 0 mm 4 m/s 745 mmHg 95%
    06:00 +8°C° 0 mm 4 m/s 745 mmHg 94%
    07:00 +10°C° 0.1 mm 4 m/s 746 mmHg 92%
    08:00 +11°C° 0.1 mm 4 m/s 746 mmHg 89%
    09:00 +12°C° 0.1 mm 4 m/s 747 mmHg 87%
    10:00 +12°C° 0.2 mm 4 m/s 747 mmHg 87%
    11:00 +12°C° 0.2 mm 4 m/s 747 mmHg 87%
    12:00 +12°C° 0.2 mm 3 m/s 748 mmHg 87%
    13:00 +13°C° 0.3 mm 4 m/s 748 mmHg 86%
    14:00 +13°C° 0.3 mm 4 m/s 748 mmHg 85%
    15:00 +13°C° 0.3 mm 5 m/s 749 mmHg 85%
    16:00 +13°C° 0 mm 5 m/s 749 mmHg 84%
    17:00 +12°C° 0 mm 5 m/s 749 mmHg 84%
    18:00 +12°C° 0 mm 5 m/s 750 mmHg 83%
    19:00 +11°C° 0 mm 4 m/s 750 mmHg 85%
    20:00 +10°C° 0 mm 4 m/s 751 mmHg 87%
    21:00 +10°C° 0 mm 4 m/s 752 mmHg 88%
    22:00 +9°C° 0 mm 3 m/s 752 mmHg 90%
    23:00 +8°C° 0 mm 3 m/s 752 mmHg 91%

    Mâine, 8 Iunie, Luni

    Timp Temperatura Precipitaţii Vânt Presiune Umiditate
    00:00 +7°C° 0 mm 3 m/s 753 mmHg 93%
    01:00 +7°C° 0 mm 3 m/s 753 mmHg 94%
    02:00 +5°C° 0 mm 3 m/s 753 mmHg 94%
    03:00 +4°C° 0 mm 3 m/s 753 mmHg 95%
    04:00 +5°C° 0 mm 3 m/s 753 mmHg 92%
    05:00 +6°C° 0 mm 4 m/s 754 mmHg 88%
    06:00 +6°C° 0 mm 4 m/s 754 mmHg 85%
    07:00 +7°C° 0 mm 4 m/s 754 mmHg 80%
    08:00 +8°C° 0 mm 4 m/s 755 mmHg 74%
    09:00 +11°C° 0 mm 4 m/s 755 mmHg 69%
    10:00 +11°C° 0 mm 4 m/s 755 mmHg 67%
    11:00 +12°C° 0 mm 4 m/s 755 mmHg 66%
    12:00 +13°C° 0 mm 4 m/s 755 mmHg 64%
    13:00 +13°C° 0 mm 4 m/s 755 mmHg 64%
    14:00 +13°C° 0 mm 4 m/s 755 mmHg 65%
    15:00 +13°C° 0 mm 3 m/s 755 mmHg 65%
    16:00 +13°C° 0 mm 3 m/s 755 mmHg 67%
    17:00 +12°C° 0 mm 3 m/s 755 mmHg 69%
    18:00 +12°C° 0 mm 3 m/s 755 mmHg 71%
    19:00 +10°C° 0 mm 3 m/s 755 mmHg 78%
    20:00 +9°C° 0 mm 2 m/s 756 mmHg 84%
    21:00 +7°C° 0 mm 2 m/s 756 mmHg 91%
    22:00 +6°C° 0 mm 2 m/s 756 mmHg 91%
    23:00 +7°C° 0 mm 1 m/s 756 mmHg 91%

    Poimâine, 9 Iunie, Marţi

    Timp Temperatura Precipitaţii Vânt Presiune Umiditate
    00:00 +6°C° 0 mm 1 m/s 756 mmHg 91%
    01:00 +6°C° 0 mm 1 m/s 756 mmHg 90%
    02:00 +6°C° 0 mm 1 m/s 756 mmHg 88%
    03:00 +4°C° 0 mm 0 m/s 756 mmHg 87%
    04:00 +6°C° 0 mm 0 m/s 756 mmHg 84%
    05:00 +7°C° 0 mm 0 m/s 756 mmHg 82%
    06:00 +8°C° 0 mm 0 m/s 756 mmHg 79%
    07:00 +9°C° 0 mm 0 m/s 756 mmHg 76%
    08:00 +11°C° 0 mm 1 m/s 756 mmHg 72%
    09:00 +13°C° 0 mm 1 m/s 756 mmHg 69%
    10:00 +13°C° 0 mm 1 m/s 756 mmHg 69%
    11:00 +14°C° 0 mm 1 m/s 756 mmHg 69%
    12:00 +14°C° 0 mm 1 m/s 756 mmHg 69%
    13:00 +15°C° 0 mm 1 m/s 755 mmHg 68%
    14:00 +15°C° 0 mm 1 m/s 755 mmHg 67%
    15:00 +16°C° 0 mm 2 m/s 755 mmHg 67%
    16:00 +16°C° 0.1 mm 2 m/s 755 mmHg 71%
    17:00 +16°C° 0.1 mm 2 m/s 755 mmHg 75%
    18:00 +15°C° 0.1 mm 2 m/s 755 mmHg 79%
    19:00 +14°C° 0.1 mm 2 m/s 755 mmHg 83%
    20:00 +13°C° 0.1 mm 2 m/s 755 mmHg 86%
    21:00 +12°C° 0.1 mm 2 m/s 755 mmHg 90%
    22:00 +12°C° 0 mm 2 m/s 755 mmHg 91%
    23:00 +10°C° 0 mm 3 m/s 754 mmHg 92%

    10 Iunie, Miercuri

    Timp Temperatura Precipitaţii Vânt Presiune Umiditate
    00:00 +10°C° 0 mm 3 m/s 754 mmHg 93%
    01:00 +10°C° 0 mm 3 m/s 754 mmHg 94%
    02:00 +10°C° 0 mm 3 m/s 754 mmHg 94%
    03:00 +9°C° 0 mm 2 m/s 753 mmHg 95%
    04:00 +10°C° 0.1 mm 2 m/s 753 mmHg 95%
    05:00 +10°C° 0.1 mm 2 m/s 753 mmHg 94%
    06:00 +10°C° 0.1 mm 2 m/s 753 mmHg 94%
    07:00 +11°C° 0.6 mm 1 m/s 753 mmHg 93%
    08:00 +12°C° 0.6 mm 1 m/s 753 mmHg 92%
    09:00 +12°C° 0.6 mm 1 m/s 753 mmHg 92%
    10:00 +12°C° 0.5 mm 1 m/s 753 mmHg 92%
    11:00 +12°C° 0.5 mm 1 m/s 753 mmHg 92%
    12:00 +12°C° 0.5 mm 2 m/s 752 mmHg 91%
    13:00 +13°C° 0.2 mm 2 m/s 752 mmHg 91%
    14:00 +13°C° 0.2 mm 2 m/s 752 mmHg 91%
    15:00 +13°C° 0.2 mm 2 m/s 751 mmHg 91%
    16:00 +12°C° 0.2 mm 3 m/s 751 mmHg 90%
    17:00 +12°C° 0.2 mm 3 m/s 751 mmHg 90%
    18:00 +12°C° 0.2 mm 3 m/s 750 mmHg 89%
    19:00 +12°C° 0.2 mm 3 m/s 750 mmHg 91%
    20:00 +11°C° 0.2 mm 3 m/s 750 mmHg 92%
    21:00 +10°C° 0.2 mm 3 m/s 750 mmHg 93%
    22:00 +10°C° 0.1 mm 3 m/s 750 mmHg 94%
    23:00 +10°C° 0.1 mm 3 m/s 750 mmHg 94%

    11 Iunie, Joi

    Timp Temperatura Precipitaţii Vânt Presiune Umiditate
    00:00 +9°C° 0.1 mm 3 m/s 749 mmHg 94%
    01:00 +8°C° 0.1 mm 4 m/s 749 mmHg 95%
    02:00 +8°C° 0.1 mm 4 m/s 749 mmHg 95%
    03:00 +8°C° 0.1 mm 4 m/s 749 mmHg 96%
    04:00 +8°C° 0.1 mm 4 m/s 749 mmHg 95%
    05:00 +8°C° 0.1 mm 4 m/s 749 mmHg 94%
    06:00 +9°C° 0.1 mm 5 m/s 749 mmHg 94%
    07:00 +10°C° 0.1 mm 4 m/s 749 mmHg 92%
    08:00 +11°C° 0.1 mm 4 m/s 749 mmHg 91%
    09:00 +12°C° 0.1 mm 4 m/s 749 mmHg 90%
    10:00 +13°C° 0.2 mm 5 m/s 749 mmHg 85%
    11:00 +14°C° 0.2 mm 5 m/s 749 mmHg 80%
    12:00 +16°C° 0.2 mm 6 m/s 748 mmHg 76%
    13:00 +15°C° 0.6 mm 6 m/s 748 mmHg 81%
    14:00 +14°C° 0.6 mm 7 m/s 748 mmHg 87%
    15:00 +13°C° 0.6 mm 8 m/s 747 mmHg 92%
    16:00 +12°C° 0.5 mm 8 m/s 747 mmHg 93%
    17:00 +12°C° 0.5 mm 8 m/s 747 mmHg 94%
    18:00 +12°C° 0.5 mm 8 m/s 747 mmHg 95%
    19:00 +11°C° 0.9 mm 8 m/s 747 mmHg 95%
    20:00 +11°C° 0.9 mm 8 m/s 747 mmHg 95%
    21:00 +10°C° 0.9 mm 8 m/s 747 mmHg 95%
    22:00 +10°C° 2.1 mm 8 m/s 746 mmHg 96%
    23:00 +10°C° 2.1 mm 8 m/s 746 mmHg 96%

    12 Iunie, Vineri

    Timp Temperatura Precipitaţii Vânt Presiune Umiditate
    00:00 +10°C° 2.1 mm 7 m/s 745 mmHg 97%
    01:00 +10°C° 0.3 mm 7 m/s 745 mmHg 97%
    02:00 +10°C° 0.3 mm 7 m/s 745 mmHg 97%
    03:00 +10°C° 0.3 mm 7 m/s 744 mmHg 97%
    04:00 +11°C° 0.1 mm 7 m/s 744 mmHg 96%
    05:00 +11°C° 0.1 mm 7 m/s 744 mmHg 96%
    06:00 +11°C° 0.1 mm 7 m/s 744 mmHg 96%
    07:00 +13°C° 0.1 mm 6 m/s 744 mmHg 96%
    08:00 +13°C° 0.1 mm 6 m/s 744 mmHg 95%
    09:00 +14°C° 0.1 mm 6 m/s 744 mmHg 95%
    10:00 +14°C° 0.7 mm 6 m/s 744 mmHg 95%
    11:00 +14°C° 0.7 mm 6 m/s 744 mmHg 94%
    12:00 +14°C° 0.7 mm 6 m/s 744 mmHg 94%
    13:00 +14°C° 0.6 mm 5 m/s 744 mmHg 92%
    14:00 +13°C° 0.6 mm 4 m/s 744 mmHg 91%
    15:00 +14°C° 0.6 mm 2 m/s 744 mmHg 89%
    16:00 +14°C° 0 mm 2 m/s 745 mmHg 86%
    17:00 +14°C° 0 mm 3 m/s 745 mmHg 84%
    18:00 +16°C° 0 mm 3 m/s 745 mmHg 81%
    19:00 +13°C° 0 mm 3 m/s 746 mmHg 86%
    20:00 +12°C° 0 mm 3 m/s 746 mmHg 90%
    21:00 +10°C° 0 mm 3 m/s 746 mmHg 95%
    22:00 +10°C° 0 mm 3 m/s 746 mmHg 95%
    23:00 +10°C° 0 mm 3 m/s 746 mmHg 95%
    Arată mai mult